Погода в Войнилове

Украина / Ивано-Франковская область     49°07′09″N   24°29′36″E
темп.,
°C
ветер,
м/с
пор.,
м/с
влажн.,
%
обл.,
%
осадки,
мм/ч
давл.,
гПа
погр.,
м
27 ноября, сб
сб2723:00+3ююв2380100 0.0 99472
02:00+5ююв2478100 0.0 99377
05:00+7юз41175100 0.0 992712
08:00+5зсз3677100 0.0 995100
11:00+7сз245611 0.0 998397
14:00+10зюз4754100 0.0 9981335
17:00+5ююз1173100 0.0 100012
20:00+4ююз228036 0.0 100112
28 ноября, вс
вс2823:00+4ююв22851 0.0 100111
02:00+3ююв2386100 0.0 100148
05:00+4юв2282100 0.0 100022
08:00+5вюв1183100 0.3 100013
11:00+6ююв1178100 0.0 100068
14:00+8вюв2480100 0.1 998151
17:00+6юв2385100 0.0 99750
20:00+5юв3886100 0.0 996116
29 ноября, пн
пн2923:00+5юв3686100 0.0 99493
02:00+6ююв2682100 0.0 99299
05:00+6вюв1181100 0.0 99014
08:00+3сз81292100 0.2 992469
11:00+3сз61173100 0.9 995676
14:00+3сз7127492 0.9 996707
17:00+1зсз7147189 0.0 998745
20:00+1зсз613745 0.0 1000745
30 ноября, вт
вт3023:00−1зсз7137647 0.0 1002710
02:00+1зсз8136570 0.0 10041022
05:000зсз6126980 0.0 1004686
08:00−1зсз7136862 0.0 1006691
11:00+1зсз7116496 0.0 10071255
14:00+1зсз6106783 0.1 10071297
17:00−1зсз49745 0.0 1007280
20:00−2з24745 0.0 100766
1 декабря, ср
ср123:000юз41259100 0.0 1005544
02:00+2зюз81752100 0.0 10031240
05:00+2зюз91655100 0.0 1003882
08:00+2з81461100 0.0 1005914
11:00+4з6135883 0.1 10061529
14:00+5зсз61460100 0.1 10071608
17:00+2зюз3768100 0.0 1006169
20:00+1ю3473100 0.0 100671